SALSAT

Last updated on Thu Feb 05 2026 00:03:11 GMT+0000 (Coordinated Universal Time)

1 46495U 20068K 26035.46742804 .00010533 00000+0 39397-3 0 9990 2 46495 97.8826 30.6958 0011858 54.3040 305.9299 15.27465777295082
UTC large
Height (km)
Speed (km/s)
/
Latitude / Longitude
Inclination (degrees)
Orbital Period (minutes)
Azimuth
Elevation
Range (km)
Doppler Factor

Next 0 passes for location: London (51.5072 / 0.1276)

Sorry there are no passes over London.